Yuma, AZ

3:06 PM MST on January 17, 2017 (GMT -0700)
Yuma Marine Corps Air Station

Weather History for KNYL - September, 2014

Change the Weather History Date:

Tuesday, September 23, 2014

  Actual Average Record
Temperature  
Mean Temperature 93 °F 87 °F  
Max Temperature 106 °F 99 °F 110 °F (1966)
Min Temperature 80 °F 74 °F 56 °F (1968)
Degree Days  
Heating Degree Days 0 0  
Month to date heating degree days 0 0  
Since 1 July heating degree days 0 0  
Cooling Degree Days 28 22  
Month to date cooling degree days 662 582  
Year to date cooling degree days 4498 4035  
Growing Degree Days 42 (Base 50)    
Moisture  
Dew Point 56 °F    
Average Humidity 38    
Maximum Humidity 62    
Minimum Humidity 13    
Precipitation  
Precipitation 0.00 in 0.02 in 0.24 in (1999)
Month to date precipitation 1.44 0.43  
Year to date precipitation 2.28 2.52  
Sea Level Pressure  
Sea Level Pressure 29.83 in    
Wind  
Wind Speed 4 mph (North)    
Max Wind Speed 10 mph    
Max Gust Speed 15 mph    
Visibility 10 miles    
Events      
T = Trace of Precipitation, MM = Missing Value Source: NWS Daily Summary

Daily Weather History Graph

Daily Weather History Graph

Search for Another Location

Airport or City:

Trip Planner

Search our weather history database for the weather conditions in past years. The results will help you decide how hot, cold, wet, or windy it might be!

Date:

Astronomy

Sep. 23, 2014 Rise Set
Actual Time 6:27 AM MST 6:33 PM MST
Civil Twilight 6:02 AM MST 6:58 PM MST
Nautical Twilight 5:34 AM MST 7:26 PM MST
Astronomical Twilight 5:05 AM MST 7:55 PM MST
Moon 5:55 AM MST (9/23) 6:15 PM MST (9/23)
Length of Visible Light 12h 55m
Length of Day
12h 06m
Waning Crescent, 0% of the Moon is Illuminated
Sep 23
Waning Crescent
Sep 23
New
Oct 1
First Quarter
Oct 8
Full
Oct 15
Last Quarter

Hourly Weather History & Observations

Time (MST) Temp. Heat Index Dew Point Humidity Pressure Visibility Wind Dir Wind Speed Gust Speed Precip Events Conditions
12:57 AM 84.9 °F 88.2 °F 68.0 °F 57% 29.85 in 10.0 mi SSE 4.6 mph - N/A   Clear
1:57 AM 84.0 °F 85.8 °F 64.9 °F 53% 29.85 in 10.0 mi Calm Calm - N/A   Clear
2:57 AM 82.9 °F 84.4 °F 64.0 °F 53% 29.84 in 10.0 mi Calm Calm - N/A   Clear
3:57 AM 81.0 °F 83.3 °F 66.9 °F 62% 29.84 in 10.0 mi NNE 4.6 mph - N/A   Clear
4:57 AM 80.1 °F 82.3 °F 66.9 °F 64% 29.85 in 10.0 mi NNE 5.8 mph - N/A   Clear
5:57 AM 82.0 °F 84.1 °F 66.0 °F 58% 29.86 in 10.0 mi NE 5.8 mph - N/A   Clear
6:57 AM 82.9 °F 84.6 °F 64.9 °F 54% 29.87 in 10.0 mi NE 5.8 mph - N/A   Clear
7:57 AM 84.9 °F 86.6 °F 64.9 °F 51% 29.88 in 10.0 mi NE 5.8 mph - N/A   Clear
8:57 AM 90.0 °F 91.7 °F 64.9 °F 43% 29.90 in 10.0 mi NE 4.6 mph - N/A   Clear
9:57 AM 95.0 °F 94.4 °F 59.0 °F 30% 29.90 in 10.0 mi Variable 4.6 mph - N/A   Clear
10:57 AM 98.1 °F 96.8 °F 57.0 °F 25% 29.89 in 10.0 mi Calm Calm - N/A   Clear
11:57 AM 100.9 °F - 51.1 °F 19% 29.87 in 10.0 mi Calm Calm - N/A   Clear
12:57 PM 102.9 °F - 48.0 °F 16% 29.84 in 10.0 mi Calm Calm - N/A   Clear
1:57 PM 102.9 °F - 46.9 °F 15% 29.81 in 10.0 mi Calm Calm - N/A   Clear
2:57 PM 104.0 °F - 46.9 °F 15% 29.79 in 10.0 mi SSW 6.9 mph - N/A   Clear
3:57 PM 104.0 °F - 44.1 °F 13% 29.77 in 10.0 mi Calm Calm - N/A   Clear
4:57 PM 104.0 °F - 45.0 °F 14% 29.76 in 10.0 mi Calm Calm - N/A   Clear
5:57 PM 102.9 °F - 46.0 °F 15% 29.75 in 10.0 mi SSW 3.5 mph - N/A   Clear
6:57 PM 100.0 °F - 48.9 °F 18% 29.76 in 10.0 mi South 4.6 mph - N/A   Clear
7:57 PM 98.1 °F - 51.1 °F 20% 29.77 in 10.0 mi West 3.5 mph - N/A   Clear
8:57 PM 93.9 °F 91.7 °F 54.0 °F 26% 29.78 in 10.0 mi West 5.8 mph - N/A   Clear
9:57 PM 93.9 °F 91.7 °F 54.0 °F 26% 29.79 in 10.0 mi West 9.2 mph - N/A   Clear
10:57 PM 91.0 °F 89.2 °F 55.9 °F 30% 29.80 in 10.0 mi West 4.6 mph - N/A   Clear
11:57 PM 90.0 °F 88.1 °F 55.9 °F 31% 29.81 in 10.0 mi ENE 3.5 mph - N/A   Clear